Weather History for Quakertown, PA

Change the Weather History Date:

Tuesday, September 24, 2013

  Actual Average (KABE) Record (KABE)
Temperature  
Mean Temperature 54 °F 61 °F  
Max Temperature 71 °F 72 °F 92 °F (1970)
Min Temperature 37 °F 50 °F 31 °F (1963)
Degree Days  
Heating Degree Days 11 5  
Month to date heating degree days 64  
Since 1 July heating degree days 75  
Cooling Degree Days 0 1  
Month to date cooling degree days 66  
Year to date cooling degree days 745  
Growing Degree Days 4 (Base 50)    
Moisture  
Dew Point 43 °F    
Average Humidity 74    
Maximum Humidity 100    
Minimum Humidity 38    
Precipitation  
Precipitation 0.00 in 0.18 in 2.04 in (1975)
Month to date precipitation 3.57  
Year to date precipitation 33.34  
Snow  
Snow 0.00 in 0.00 in 0.00 in (2002)
Month to date snowfall 0.0  
Since 1 July snowfall 0.0  
Since 1 September snowfall 0.0  
Snow Depth -    
Sea Level Pressure  
Sea Level Pressure 30.02 in    
Wind  
Wind Speed 2 mph (West)    
Max Wind Speed 12 mph    
Max Gust Speed -    
Visibility 10 miles    
Events      
T = Trace of Precipitation, MM = Missing Value Source: NWS Daily Summary

Daily Weather History Graph

Daily Weather History Graph

Search for Another Location

Airport:

Trip Planner

Search our weather history database for the weather conditions in past years. The results will help you decide how hot, cold, wet, or windy it might be!

Date:

Astronomy

Sep. 24, 2013 Rise Set
Actual Time 6:51 AM EDT 6:54 PM EDT
Civil Twilight 6:24 AM EDT 7:22 PM EDT
Nautical Twilight 5:52 AM EDT 7:53 PM EDT
Astronomical Twilight 5:19 AM EDT 8:26 PM EDT
Moon 10:09 PM EDT (9/24) 12:04 PM EDT (9/24)
Length of Visible Light 12h 58m
Length of Day
12h 03m
Waning Gibbous, 73% of the Moon is Illuminated
Sep 24
Waning Gibbous
Sep 26
Last Quarter
Oct 4
New
Oct 11
First Quarter
Oct 18
Full

Hourly Weather History & Observations

Time (EDT) Temp. Windchill Dew Point Humidity Pressure Visibility Wind Dir Wind Speed Gust Speed Precip Events Conditions
12:10 AM 44.6 °F - 41.0 °F 87% 30.08 in 10.0 mi Calm Calm - N/A   Clear
12:35 AM 44.6 °F - 41.0 °F 87% 30.08 in 10.0 mi Calm Calm - N/A   Clear
12:55 AM 42.8 °F 41.1 °F 41.0 °F 93% 30.08 in 10.0 mi North 3.5 mph - N/A   Clear
1:15 AM 42.8 °F - 41.0 °F 93% 30.08 in 10.0 mi Calm Calm - N/A   Clear
1:35 AM 41.0 °F - 41.0 °F 100% 30.09 in 10.0 mi Calm Calm - N/A   Clear
1:50 AM 41.0 °F - 41.0 °F 100% 30.09 in 10.0 mi Calm Calm - N/A   Clear
2:15 AM 41.0 °F - 39.2 °F 93% 30.08 in 10.0 mi Calm Calm - N/A   Clear
2:30 AM 41.0 °F - 39.2 °F 93% 30.08 in 10.0 mi Calm Calm - N/A   Clear
2:55 AM 39.2 °F - 39.2 °F 100% 30.08 in 10.0 mi Calm Calm - N/A   Clear
3:10 AM 39.2 °F - 39.2 °F 100% 30.08 in 10.0 mi Calm Calm - N/A   Clear
3:35 AM 39.2 °F - 39.2 °F 100% 30.09 in 10.0 mi Calm Calm - N/A   Clear
3:55 AM 39.2 °F - 37.4 °F 93% 30.09 in 10.0 mi Calm Calm - N/A   Clear
4:15 AM 39.2 °F 37.0 °F 39.2 °F 100% 30.08 in 10.0 mi West 3.5 mph - N/A   Clear
4:35 AM 39.2 °F - 39.2 °F 100% 30.09 in 10.0 mi Calm Calm - N/A   Clear
4:55 AM 39.2 °F - 39.2 °F 100% 30.09 in 10.0 mi Calm Calm - N/A   Clear
5:15 AM 39.2 °F - 37.4 °F 93% 30.09 in 10.0 mi Calm Calm - N/A   Clear
5:35 AM 39.2 °F - 37.4 °F 93% 30.09 in 10.0 mi Calm Calm - N/A   Clear
5:55 AM 39.2 °F - 39.2 °F 100% 30.09 in 10.0 mi Calm Calm - N/A   Clear
6:10 AM 39.2 °F - 37.4 °F 93% 30.09 in 10.0 mi Calm Calm - N/A   Clear
6:35 AM 37.4 °F - 37.4 °F 100% 30.09 in 10.0 mi Calm Calm - N/A   Clear
6:50 AM 37.4 °F - 37.4 °F 100% 30.09 in 10.0 mi Calm Calm - N/A   Clear
7:15 AM 37.4 °F - 37.4 °F 100% 30.09 in 10.0 mi Calm Calm - N/A   Clear
7:30 AM 37.4 °F - 37.4 °F 100% 30.09 in 10.0 mi Calm Calm - N/A   Clear
7:55 AM 42.8 °F - 39.2 °F 87% 30.09 in 10.0 mi Calm Calm - N/A   Clear
8:15 AM 46.4 °F 45.2 °F 41.0 °F 81% 30.09 in 10.0 mi West 3.5 mph - N/A   Clear
8:35 AM 48.2 °F - 41.0 °F 76% 30.09 in 10.0 mi WSW 3.5 mph - N/A   Clear
8:55 AM 48.2 °F - 42.8 °F 82% 30.09 in 10.0 mi WSW 4.6 mph - N/A   Clear
9:15 AM 50.0 °F - 42.8 °F 76% 30.09 in 10.0 mi West 5.8 mph - N/A   Clear
9:35 AM 51.8 °F - 44.6 °F 76% 30.08 in 10.0 mi WNW 5.8 mph - N/A   Clear
9:55 AM 53.6 °F - 44.6 °F 72% 30.08 in 10.0 mi NW 11.5 mph - N/A   Clear
10:15 AM 55.4 °F - 44.6 °F 67% 30.08 in 10.0 mi West 4.6 mph - N/A   Clear
10:30 AM 55.4 °F - 44.6 °F 67% 30.07 in 10.0 mi West 5.8 mph - N/A   Clear
10:55 AM 57.2 °F - 44.6 °F 63% 30.06 in 10.0 mi WNW 8.1 mph - N/A   Clear
11:10 AM 57.2 °F - 44.6 °F 63% 30.05 in 10.0 mi WSW 8.1 mph - N/A   Clear
11:35 AM 60.8 °F - 46.4 °F 59% 30.04 in 10.0 mi WSW 4.6 mph - N/A   Clear
11:55 AM 62.6 °F - 46.4 °F 55% 30.04 in 10.0 mi NW 4.6 mph - N/A   Clear
12:15 PM 62.6 °F - 46.4 °F 55% 30.03 in 10.0 mi WNW 6.9 mph - N/A   Clear
12:35 PM 62.6 °F - 46.4 °F 55% 30.02 in 10.0 mi West 4.6 mph - N/A   Clear
12:55 PM 64.4 °F - 46.4 °F 52% 30.01 in 10.0 mi West 6.9 mph - N/A   Clear
1:15 PM 66.2 °F - 44.6 °F 46% 30.00 in 10.0 mi SW 8.1 mph - N/A   Clear
1:35 PM 66.2 °F - 46.4 °F 49% 29.99 in 10.0 mi SW 6.9 mph - N/A   Clear
1:55 PM 68.0 °F - 44.6 °F 43% 29.98 in 10.0 mi WSW 6.9 mph - N/A   Clear
2:15 PM 68.0 °F - 46.4 °F 46% 29.97 in 10.0 mi West 8.1 mph - N/A   Clear
2:35 PM 69.8 °F - 44.6 °F 40% 29.96 in 10.0 mi West 5.8 mph - N/A   Clear
2:50 PM 69.8 °F - 44.6 °F 40% 29.96 in 10.0 mi WSW 5.8 mph - N/A   Clear
3:15 PM 71.6 °F - 44.6 °F 38% 29.96 in 10.0 mi West 4.6 mph - N/A   Clear
3:30 PM 71.6 °F - 44.6 °F 38% 29.95 in 10.0 mi West 6.9 mph - N/A   Clear
3:55 PM 71.6 °F - 44.6 °F 38% 29.95 in 10.0 mi West 6.9 mph - N/A   Clear
4:15 PM 71.6 °F - 44.6 °F 38% 29.94 in 10.0 mi West 6.9 mph - N/A   Clear
4:35 PM 71.6 °F - 44.6 °F 38% 29.94 in 10.0 mi West 6.9 mph - N/A   Clear
4:55 PM 71.6 °F - 46.4 °F 41% 29.94 in 10.0 mi West 5.8 mph - N/A   Clear
5:15 PM 71.6 °F - 44.6 °F 38% 29.94 in 10.0 mi West 5.8 mph - N/A   Clear
5:35 PM 71.6 °F - 44.6 °F 38% 29.93 in 10.0 mi West 4.6 mph - N/A   Clear
5:55 PM 69.8 °F - 44.6 °F 40% 29.94 in 10.0 mi WNW 5.8 mph - N/A   Clear
6:15 PM 68.0 °F - 44.6 °F 43% 29.94 in 10.0 mi WNW 5.8 mph - N/A   Clear
6:35 PM 66.2 °F - 44.6 °F 46% 29.94 in 10.0 mi WNW 4.6 mph - N/A   Clear
6:55 PM 64.4 °F - 46.4 °F 52% 29.94 in 10.0 mi WNW 4.6 mph - N/A   Clear
7:10 PM 62.6 °F - 44.6 °F 52% 29.94 in 10.0 mi WNW 3.5 mph - N/A   Clear
7:35 PM 57.2 °F - 48.2 °F 72% 29.95 in 10.0 mi SSW 3.5 mph - N/A   Clear
7:55 PM 55.4 °F - 48.2 °F 77% 29.95 in 10.0 mi Calm Calm - N/A   Clear
8:15 PM 53.6 °F - 48.2 °F 82% 29.95 in 10.0 mi Calm Calm - N/A   Clear
8:35 PM 53.6 °F - 48.2 °F 82% 29.96 in 10.0 mi Calm Calm - N/A   Clear
8:55 PM 53.6 °F - 48.2 °F 82% 29.96 in 10.0 mi Calm Calm - N/A   Clear
9:15 PM 51.8 °F - 48.2 °F 88% 29.96 in 10.0 mi Calm Calm - N/A   Clear
9:35 PM 50.0 °F - 46.4 °F 87% 29.96 in 10.0 mi Calm Calm - N/A   Clear
9:55 PM 50.0 °F - 46.4 °F 87% 29.96 in 10.0 mi Calm Calm - N/A   Clear
10:15 PM 48.2 °F - 46.4 °F 93% 29.96 in 10.0 mi Calm Calm - N/A   Clear
10:35 PM 48.2 °F - 46.4 °F 93% 29.96 in 10.0 mi SW 3.5 mph - N/A   Clear
10:55 PM 48.2 °F - 46.4 °F 93% 29.96 in 10.0 mi Calm Calm - N/A   Clear
11:15 PM 48.2 °F - 46.4 °F 93% 29.95 in 10.0 mi WNW 3.5 mph - N/A   Clear
11:35 PM 50.0 °F - 44.6 °F 82% 29.95 in 10.0 mi North 5.8 mph - N/A   Clear
11:50 PM 50.0 °F - 44.6 °F 82% 29.96 in 10.0 mi Calm Calm - N/A   Clear